FW2265 Weather Reports


Display with metric or nautical units.
time (UTC)temp
F
wind
direction
speed
MPH
gust
MPH
rain 1hr
in
rain 24hr
in
rain mn
in
humidity
%
barometer
mb
20260504025440 67 225 0.0 0.0 0.00 0.00 0.00 55 1019.4
20260504023537 68 225 0.0 0.0 0.00 0.00 0.00 54 1019.5
20260504022540 68 225 0.0 0.0 0.00 0.00 0.00 53 1019.2
20260504021637 68 202 0.0 1.0 0.00 0.00 0.00 54 1019.4
20260504020639 69 225 0.0 1.0 0.00 0.00 0.00 53 1019.3
20260504015639 69 202 0.0 1.0 0.00 0.00 0.00 52 1019.2
20260504014638 69 225 0.0 0.0 0.00 0.00 0.00 52 1019.3
20260504013639 70 225 0.0 1.0 0.00 0.00 0.00 50 1019.2
20260504011741 70 225 0.0 1.0 0.00 0.00 0.00 48 1019.2
20260504010837 71 180 0.0 0.0 0.00 0.00 0.00 48 1019.1
20260504005840 71 202 0.0 1.0 0.00 0.00 0.00 48 1019.1
20260504004939 72 225 0.0 0.0 0.00 0.00 0.00 47 1019.1
20260504003939 72 225 0.0 0.0 0.00 0.00 0.00 46 1019.1
20260504002941 73 215 0.0 2.0 0.00 0.00 0.00 44 1019.0
20260504001940 73 122 0.0 0.0 0.00 0.00 0.00 43 1019.0
20260504000940 74 224 1.0 4.0 0.00 0.00 0.00 42 1019.1
20260504000037 74 217 0.0 2.0 0.00 0.00 0.00 40 1019.0
20260503235040 75 195 1.0 3.0 0.00 0.00 0.00 40 1019.1
20260503233138 76 178 0.0 1.0 0.00 0.00 0.00 38 1019.3
20260503232139 76 222 0.0 2.0 0.00 0.00 0.00 38 1019.2
20260503232037 76 225 1.0 3.0 0.00 0.00 0.00 39 1019.2
20260503231039 77 220 1.0 4.0 0.00 0.00 0.00 38 1019.2
20260503230040 77 258 0.0 1.0 0.00 0.00 0.00 38 1019.2
20260503225039 77 221 1.0 3.0 0.00 0.00 0.00 37 1019.3
20260503224038 77 225 0.0 1.0 0.00 0.00 0.00 37 1019.4
20260503223939 77 225 0.0 2.0 0.00 0.00 0.00 36 1019.5
20260503222038 78 243 0.0 0.0 0.00 0.00 0.00 36 1019.6
20260503221040 78 179 0.0 0.0 0.00 0.00 0.00 36 1019.6
20260503220139 79 66 0.0 2.0 0.00 0.00 0.00 35 1019.6
20260503215238 80 90 0.0 0.0 0.00 0.00 0.00 34 1019.8
20260503214240 79 22 0.0 0.0 0.00 0.00 0.00 34 1020.1
20260503211239 82 200 0.0 2.0 0.00 0.00 0.00 31 1020.3
20260503210241 82 66 0.0 1.0 0.00 0.00 0.00 31 1020.6
20260503205240 82 52 1.0 3.0 0.00 0.00 0.00 31 1020.6
20260503204339 81 81 0.0 4.0 0.00 0.00 0.00 32 1020.6
20260503203340 81 56 0.0 3.0 0.00 0.00 0.00 32 1021.0
20260503202341 81 169 0.0 2.0 0.00 0.00 0.00 33 1021.1
20260503201339 81 22 1.0 3.0 0.00 0.00 0.00 33 1021.3
20260503200338 81 214 2.0 3.0 0.00 0.00 0.00 31 1021.5
20260503195438 81 224 2.0 5.0 0.00 0.00 0.00 32 1021.4
20260503195340 81 208 1.0 4.0 0.00 0.00 0.00 32 1021.5
20260503192341 81 214 2.0 4.0 0.00 0.00 0.00 32 1022.1
20260503191339 80 204 0.0 0.0 0.00 0.00 0.00 31 1022.2
20260503185339 80 220 1.0 3.0 0.00 0.00 0.00 29 1022.4
20260503184340 80 12 2.0 4.0 0.00 0.00 0.00 29 1022.6
20260503183339 80 68 0.0 2.0 0.00 0.00 0.00 29 1022.8
20260503182341 80 132 0.0 0.0 0.00 0.00 0.00 29 1022.8
20260503180338 80 83 0.0 3.0 0.00 0.00 0.00 30 1023.1
20260503174339 80 185 0.0 1.0 0.00 0.00 0.00 30 1023.3
20260503173341 79 90 0.0 0.0 0.00 0.00 0.00 30 1023.6
20260503172438 79 190 0.0 2.0 0.00 0.00 0.00 31 1023.6
20260503171439 78 16 2.0 4.0 0.00 0.00 0.00 32 1023.8
20260503170442 77 215 2.0 8.0 0.00 0.00 0.00 33 1023.8
20260503130738 58 67 0.0 0.0 0.00 0.00 0.00 98 1023.1
20260503090138 54 67 0.0 0.0 0.00 0.00 0.00 93 1021.7
20260503081240 55 67 0.0 0.0 0.00 0.00 0.00 91 1021.7
20260503080239 55 67 0.0 0.0 0.00 0.00 0.00 91 1021.7
20260503071439 56 67 0.0 0.0 0.00 0.00 0.00 89 1021.6
20260503070439 56 67 0.0 0.0 0.00 0.00 0.00 88 1021.7
20260503054539 58 67 0.0 0.0 0.00 0.01 0.00 84 1021.7
20260503053539 58 67 0.0 0.0 0.00 0.01 0.00 85 1021.6
20260503051638 58 67 0.0 0.0 0.00 0.01 0.00 82 1021.5
20260503051537 58 67 0.0 0.0 0.00 0.01 0.00 83 1021.5
20260503044543 59 67 0.0 0.0 0.00 0.01 0.01 79 1021.3
20260503043541 59 67 0.0 0.0 0.00 0.01 0.01 78 1021.3
20260503042542 60 67 0.0 0.0 0.00 0.01 0.01 78 1021.5
20260503040544 60 67 0.0 0.0 0.00 0.01 0.01 77 1021.5
20260503035641 61 67 0.0 0.0 0.00 0.02 0.01 76 1021.2
20260503034642 61 67 0.0 0.0 0.00 0.03 0.01 77 1021.2
20260503033644 61 67 0.0 0.0 0.00 0.03 0.01 76 1021.0
20260503032742 61 67 0.0 0.0 0.00 0.03 0.01 74 1020.9
20260503032641 61 67 0.0 0.0 0.00 0.03 0.01 73 1020.9
20260503031643 61 67 0.0 0.0 0.00 0.03 0.01 73 1020.8